| time (UTC) | temp F | wind direction | speed knots | gust knots | rain 1hr in | rain 24hr in | rain mn in | humidity % | barometer mb |
| 20260504050016 | 50 | 182 | 1.7 | 4.3 | 0.00 | 0.00 | 0.00 | 66 | 1004.7 |
| 20260504045516 | 50 | 182 | 3.5 | 5.2 | 0.00 | 0.00 | 0.00 | 66 | 1004.6 |
| 20260504045017 | 50 | 182 | 4.3 | 5.2 | 0.00 | 0.00 | 0.00 | 66 | 1004.7 |
| 20260504044517 | 50 | 182 | 4.3 | 4.3 | 0.00 | 0.00 | 0.00 | 65 | 1004.8 |
| 20260504044016 | 51 | 182 | 3.5 | 3.5 | 0.00 | 0.00 | 0.00 | 63 | 1004.8 |
| 20260504043517 | 51 | 184 | 1.7 | 3.5 | 0.00 | 0.00 | 0.00 | 62 | 1004.8 |
| 20260504043016 | 52 | 184 | 0.9 | 5.2 | 0.00 | 0.00 | 0.00 | 61 | 1004.9 |
| 20260504042517 | 52 | 184 | 2.6 | 6.1 | 0.00 | 0.00 | 0.00 | 61 | 1005.0 |
| 20260504042016 | 52 | 184 | 4.3 | 7.0 | 0.00 | 0.00 | 0.00 | 61 | 1005.1 |
| 20260504041517 | 52 | 184 | 4.3 | 7.8 | 0.00 | 0.00 | 0.00 | 61 | 1005.1 |
| 20260504041016 | 52 | 182 | 6.1 | 7.8 | 0.00 | 0.00 | 0.00 | 60 | 1005.3 |
| 20260504040516 | 53 | 177 | 3.5 | 5.2 | 0.00 | 0.00 | 0.00 | 58 | 1005.2 |
| 20260504040016 | 53 | 177 | 2.6 | 5.2 | 0.00 | 0.00 | 0.00 | 58 | 1005.3 |
| 20260504035516 | 53 | 177 | 2.6 | 5.2 | 0.00 | 0.00 | 0.00 | 57 | 1005.1 |
| 20260504035016 | 53 | 177 | 3.5 | 5.2 | 0.00 | 0.00 | 0.00 | 57 | 1005.2 |
| 20260504034016 | 54 | 195 | 3.5 | 4.3 | 0.00 | 0.00 | 0.00 | 56 | 1005.5 |
| 20260504033016 | 55 | 209 | 1.7 | 3.5 | 0.00 | 0.00 | 0.00 | 55 | 1005.6 |
| 20260504032516 | 55 | 209 | 3.5 | 3.5 | 0.00 | 0.00 | 0.00 | 55 | 1005.7 |
| 20260504032016 | 55 | 209 | 2.6 | 4.3 | 0.00 | 0.00 | 0.00 | 55 | 1005.8 |
| 20260504031517 | 56 | 220 | 3.5 | 4.3 | 0.00 | 0.00 | 0.00 | 53 | 1005.9 |
| 20260504030517 | 56 | 241 | 3.5 | 4.3 | 0.00 | 0.00 | 0.00 | 53 | 1005.8 |
| 20260504030016 | 57 | 241 | 3.5 | 4.3 | 0.00 | 0.00 | 0.00 | 51 | 1005.9 |
| 20260504025516 | 58 | 261 | 3.5 | 5.2 | 0.00 | 0.00 | 0.00 | 50 | 1005.7 |
| 20260504025016 | 59 | 257 | 3.5 | 6.1 | 0.00 | 0.00 | 0.00 | 49 | 1005.8 |
| 20260504024516 | 59 | 263 | 4.3 | 6.1 | 0.00 | 0.00 | 0.00 | 47 | 1005.8 |
| 20260504024016 | 60 | 267 | 4.3 | 7.0 | 0.00 | 0.00 | 0.00 | 47 | 1005.8 |
| 20260504023516 | 60 | 277 | 4.3 | 7.0 | 0.00 | 0.00 | 0.00 | 47 | 1005.8 |
| 20260504023017 | 60 | 265 | 4.3 | 5.2 | 0.00 | 0.00 | 0.00 | 47 | 1005.7 |
| 20260504022516 | 61 | 253 | 2.6 | 5.2 | 0.00 | 0.00 | 0.00 | 45 | 1005.7 |
| 20260504022017 | 62 | 247 | 4.3 | 5.2 | 0.00 | 0.00 | 0.00 | 43 | 1005.7 |
| 20260504021516 | 64 | 249 | 4.3 | 5.2 | 0.00 | 0.00 | 0.00 | 39 | 1005.8 |
| 20260504021016 | 64 | 259 | 4.3 | 4.3 | 0.00 | 0.00 | 0.00 | 39 | 1005.7 |
| 20260504020016 | 65 | 261 | 3.5 | 5.2 | 0.00 | 0.00 | 0.00 | 37 | 1005.7 |
| 20260504015516 | 66 | 267 | 3.5 | 5.2 | 0.00 | 0.00 | 0.00 | 36 | 1005.6 |
| 20260504015016 | 66 | 265 | 2.6 | 4.3 | 0.00 | 0.00 | 0.00 | 37 | 1005.5 |
| 20260504013516 | 67 | 269 | 2.6 | 7.0 | 0.00 | 0.00 | 0.00 | 35 | 1005.5 |
| 20260504013016 | 68 | 276 | 4.3 | 8.7 | 0.00 | 0.00 | 0.00 | 35 | 1005.5 |
| 20260504012516 | 68 | 259 | 5.2 | 8.7 | 0.00 | 0.00 | 0.00 | 34 | 1005.4 |
| 20260504012016 | 69 | 263 | 5.2 | 7.0 | 0.00 | 0.00 | 0.00 | 34 | 1005.4 |
| 20260504010516 | 70 | 268 | 4.3 | 7.0 | 0.00 | 0.00 | 0.00 | 32 | 1005.3 |
| 20260504010017 | 70 | 269 | 5.2 | 10.4 | 0.00 | 0.00 | 0.00 | 31 | 1005.3 |
| 20260504005516 | 71 | 282 | 5.2 | 10.4 | 0.00 | 0.00 | 0.00 | 31 | 1005.1 |
| 20260504005016 | 71 | 265 | 8.7 | 10.4 | 0.00 | 0.00 | 0.00 | 30 | 1005.1 |
| 20260504004516 | 72 | 271 | 5.2 | 10.4 | 0.00 | 0.00 | 0.00 | 31 | 1005.2 |
| 20260504004016 | 72 | 274 | 7.0 | 10.4 | 0.00 | 0.00 | 0.00 | 30 | 1005.3 |
| 20260504002516 | 73 | 287 | 11.3 | 13.9 | 0.00 | 0.00 | 0.00 | 30 | 1005.3 |
| 20260504002016 | 73 | 269 | 9.6 | 13.9 | 0.00 | 0.00 | 0.00 | 29 | 1005.3 |
| 20260504001516 | 73 | 281 | 7.0 | 13.9 | 0.00 | 0.00 | 0.00 | 28 | 1005.2 |
| 20260504001016 | 74 | 257 | 11.3 | 14.8 | 0.00 | 0.00 | 0.00 | 28 | 1005.2 |
| 20260504000516 | 74 | 284 | 5.2 | 14.8 | 0.00 | 0.00 | 0.00 | 28 | 1005.1 |
| 20260504000016 | 74 | 273 | 13.9 | 14.8 | 0.00 | 0.00 | 0.00 | 27 | 1005.2 |
| 20260503235016 | 74 | 289 | 9.6 | 13.9 | 0.00 | 0.00 | 0.00 | 28 | 1005.1 |
| 20260503234516 | 74 | 253 | 10.4 | 13.0 | 0.00 | 0.00 | 0.00 | 27 | 1005.1 |
| 20260503234016 | 74 | 268 | 6.1 | 13.0 | 0.00 | 0.00 | 0.00 | 28 | 1005.0 |
| 20260503233516 | 75 | 302 | 5.2 | 14.8 | 0.00 | 0.00 | 0.00 | 27 | 1005.1 |
| 20260503233016 | 75 | 262 | 9.6 | 15.6 | 0.00 | 0.00 | 0.00 | 28 | 1005.2 |
| 20260503232516 | 75 | 265 | 13.0 | 15.6 | 0.00 | 0.00 | 0.00 | 28 | 1005.2 |
| 20260503231016 | 75 | 302 | 12.2 | 18.2 | 0.00 | 0.00 | 0.00 | 27 | 1005.1 |
| 20260503230016 | 75 | 266 | 13.0 | 17.4 | 0.00 | 0.00 | 0.00 | 27 | 1005.1 |
| 20260503225516 | 75 | 229 | 13.0 | 19.1 | 0.00 | 0.00 | 0.00 | 28 | 1005.1 |
| 20260503225016 | 75 | 293 | 6.1 | 19.1 | 0.00 | 0.00 | 0.00 | 28 | 1005.1 |
| 20260503224516 | 76 | 268 | 9.6 | 15.6 | 0.00 | 0.00 | 0.00 | 28 | 1005.1 |
| 20260503223516 | 76 | 275 | 8.7 | 16.5 | 0.00 | 0.00 | 0.00 | 27 | 1005.1 |
| 20260503223016 | 76 | 263 | 8.7 | 16.5 | 0.00 | 0.00 | 0.00 | 25 | 1005.1 |
| 20260503222516 | 77 | 305 | 11.3 | 15.6 | 0.00 | 0.00 | 0.00 | 25 | 1005.1 |
| 20260503221516 | 77 | 290 | 13.0 | 18.2 | 0.00 | 0.00 | 0.00 | 25 | 1005.0 |
| 20260503221016 | 77 | 252 | 7.8 | 18.2 | 0.00 | 0.00 | 0.00 | 24 | 1005.0 |
| 20260503220516 | 78 | 317 | 11.3 | 14.8 | 0.00 | 0.00 | 0.00 | 25 | 1005.0 |
| 20260503220016 | 78 | 288 | 10.4 | 19.1 | 0.00 | 0.00 | 0.00 | 25 | 1005.1 |
| 20260503214516 | 78 | 5 | 2.6 | 16.5 | 0.00 | 0.00 | 0.00 | 26 | 1005.2 |
| 20260503213516 | 78 | 307 | 9.6 | 19.1 | 0.00 | 0.00 | 0.00 | 24 | 1005.2 |
| 20260503213016 | 78 | 303 | 7.0 | 20.0 | 0.00 | 0.00 | 0.00 | 26 | 1005.1 |
| 20260503212516 | 78 | 286 | 12.2 | 20.0 | 0.00 | 0.00 | 0.00 | 26 | 1005.2 |
| 20260503212016 | 78 | 5 | 10.4 | 14.8 | 0.00 | 0.00 | 0.00 | 27 | 1005.2 |
| 20260503211516 | 78 | 267 | 14.8 | 14.8 | 0.00 | 0.00 | 0.00 | 27 | 1005.2 |
| 20260503211016 | 78 | 338 | 6.1 | 15.6 | 0.00 | 0.00 | 0.00 | 26 | 1005.2 |
| 20260503210516 | 78 | 319 | 7.0 | 15.6 | 0.00 | 0.00 | 0.00 | 27 | 1005.2 |
| 20260503210016 | 78 | 267 | 4.3 | 17.4 | 0.00 | 0.00 | 0.00 | 26 | 1005.3 |
| 20260503205016 | 78 | 298 | 11.3 | 20.9 | 0.00 | 0.00 | 0.00 | 28 | 1005.3 |
| 20260503204516 | 78 | 306 | 12.2 | 17.4 | 0.00 | 0.00 | 0.00 | 26 | 1005.4 |
| 20260503204016 | 78 | 293 | 8.7 | 19.1 | 0.00 | 0.00 | 0.00 | 28 | 1005.4 |
| 20260503203016 | 78 | 306 | 16.5 | 22.6 | 0.00 | 0.00 | 0.00 | 29 | 1005.5 |
| 20260503202516 | 78 | 315 | 11.3 | 22.6 | 0.00 | 0.00 | 0.00 | 29 | 1005.6 |
| 20260503202016 | 77 | 303 | 12.2 | 17.4 | 0.00 | 0.00 | 0.00 | 29 | 1005.6 |
| 20260503201016 | 76 | 296 | 14.8 | 17.4 | 0.00 | 0.00 | 0.00 | 33 | 1005.5 |
| 20260503200516 | 76 | 271 | 15.6 | 18.2 | 0.00 | 0.00 | 0.00 | 30 | 1005.5 |
| 20260503200016 | 76 | 281 | 12.2 | 19.1 | 0.00 | 0.00 | 0.00 | 32 | 1005.5 |
| 20260503195516 | 77 | 273 | 18.2 | 19.1 | 0.00 | 0.00 | 0.00 | 28 | 1005.7 |
| 20260503195016 | 77 | 282 | 6.1 | 17.4 | 0.00 | 0.00 | 0.00 | 31 | 1005.6 |
| 20260503194516 | 78 | 273 | 10.4 | 18.2 | 0.00 | 0.00 | 0.00 | 28 | 1005.7 |
| 20260503194016 | 77 | 299 | 12.2 | 19.1 | 0.00 | 0.00 | 0.00 | 31 | 1005.7 |
| 20260503193516 | 77 | 311 | 16.5 | 19.1 | 0.00 | 0.00 | 0.00 | 31 | 1005.7 |
| 20260503193015 | 77 | 325 | 19.1 | 19.1 | 0.00 | 0.00 | 0.00 | 32 | 1005.8 |
| 20260503192515 | 77 | 316 | 10.4 | 19.1 | 0.00 | 0.00 | 0.00 | 32 | 1005.7 |
| 20260503192016 | 77 | 355 | 12.2 | 19.1 | 0.00 | 0.00 | 0.00 | 33 | 1005.6 |
| 20260503191016 | 77 | 304 | 17.4 | 20.0 | 0.00 | 0.00 | 0.00 | 34 | 1005.7 |
| 20260503190515 | 77 | 324 | 3.5 | 20.0 | 0.00 | 0.00 | 0.00 | 32 | 1005.8 |
| 20260503190015 | 77 | 282 | 9.6 | 21.7 | 0.00 | 0.00 | 0.00 | 33 | 1005.7 |
| 20260503185515 | 77 | 264 | 12.2 | 21.7 | 0.00 | 0.00 | 0.00 | 32 | 1005.7 |
| 20260503185016 | 77 | 300 | 13.9 | 20.9 | 0.00 | 0.00 | 0.00 | 33 | 1005.8 |
| 20260503184516 | 77 | 296 | 14.8 | 19.1 | 0.00 | 0.00 | 0.00 | 34 | 1005.7 |
| 20260503184015 | 76 | 317 | 11.3 | 20.9 | 0.00 | 0.00 | 0.00 | 33 | 1005.5 |
| 20260503183516 | 76 | 305 | 19.1 | 20.9 | 0.00 | 0.00 | 0.00 | 33 | 1005.6 |
| 20260503183016 | 75 | 280 | 17.4 | 19.1 | 0.00 | 0.00 | 0.00 | 35 | 1005.6 |
| 20260503182516 | 75 | 281 | 12.2 | 18.2 | 0.00 | 0.00 | 0.00 | 34 | 1005.7 |
| 20260503182016 | 75 | 294 | 14.8 | 20.0 | 0.00 | 0.00 | 0.00 | 34 | 1005.6 |
| 20260503181515 | 75 | 279 | 15.6 | 20.0 | 0.00 | 0.00 | 0.00 | 35 | 1005.7 |
| 20260503181015 | 75 | 285 | 12.2 | 20.0 | 0.00 | 0.00 | 0.00 | 36 | 1005.7 |
| 20260503180515 | 74 | 305 | 10.4 | 18.2 | 0.00 | 0.00 | 0.00 | 37 | 1005.8 |
| 20260503180016 | 74 | 300 | 7.8 | 16.5 | 0.00 | 0.00 | 0.00 | 36 | 1005.9 |
| 20260503175515 | 74 | 286 | 4.3 | 16.5 | 0.00 | 0.00 | 0.00 | 35 | 1005.9 |
| 20260503174516 | 74 | 295 | 6.1 | 15.6 | 0.00 | 0.00 | 0.00 | 37 | 1005.9 |
| 20260503173015 | 72 | 285 | 7.8 | 14.8 | 0.00 | 0.00 | 0.00 | 36 | 1005.9 |
| 20260503172516 | 72 | 265 | 10.4 | 13.9 | 0.00 | 0.00 | 0.00 | 39 | 1006.1 |
| 20260503172015 | 72 | 270 | 13.0 | 13.9 | 0.00 | 0.00 | 0.00 | 39 | 1006.1 |
| 20260503171516 | 71 | 252 | 6.1 | 17.4 | 0.00 | 0.00 | 0.00 | 41 | 1006.1 |
| 20260503171015 | 71 | 277 | 13.0 | 17.4 | 0.00 | 0.00 | 0.00 | 40 | 1006.1 |
| 20260503170515 | 71 | 280 | 4.3 | 16.5 | 0.00 | 0.00 | 0.00 | 41 | 1006.2 |
| 20260503150515 | 62 | 226 | 13.9 | 19.1 | 0.00 | 0.00 | 0.00 | 48 | 1006.8 |
| 20260503131015 | 55 | 165 | 11.3 | 16.5 | 0.00 | 0.00 | 0.00 | 54 | 1007.9 |
| 20260503130515 | 55 | 192 | 13.9 | 16.5 | 0.00 | 0.00 | 0.00 | 54 | 1008.0 |
| 20260503110515 | 54 | 144 | 7.0 | 14.8 | 0.00 | 0.00 | 0.00 | 53 | 1008.8 |
| 20260503081515 | 55 | 192 | 5.2 | 11.3 | 0.00 | 0.00 | 0.00 | 48 | 1012.3 |
| 20260503081015 | 55 | 169 | 3.5 | 9.6 | 0.00 | 0.00 | 0.00 | 48 | 1012.2 |
| 20260503072015 | 55 | 209 | 7.0 | 12.2 | 0.00 | 0.00 | 0.00 | 48 | 1012.1 |
| 20260503071515 | 55 | 160 | 5.2 | 12.2 | 0.00 | 0.00 | 0.00 | 47 | 1012.0 |
| 20260503071014 | 55 | 199 | 4.3 | 10.4 | 0.00 | 0.00 | 0.00 | 48 | 1012.1 |
| 20260503070514 | 55 | 216 | 1.7 | 11.3 | 0.00 | 0.00 | 0.00 | 48 | 1012.6 |